Theta_e
301 300 302 305 307 311 314 315 312 312 310 306 309 312 315 316 315 314 309 310 307 309 317 314 321 327 325 319 319 318 320 318 315 312 311 312 312 314 314 316 322 321 319 324 333
300 300 301 301 306 308 313 315 313 312 308 303 310 312 315 316 316 315 309 310 307 313 315 315 318 320 317 313 314 317 321 317 313 311 311 311 311 311 313 312 311 326 327 331 334
300 299 299 300 304 307 311 313 313 312 305 308 310 312 312 314 314 313 311 309 309 316 314 316 317 316 315 315 313 314 318 314 314 313 312 311 310 311 309 308 309 310 328 332 336
300 298 296 298 301 304 307 310 313 307 308 308 309 312 311 312 313 309 312 310 310 315 313 315 314 314 315 316 315 315 313 313 314 314 312 310 310 309 309 308 310 315 323 328 331
298 297 297 299 302 303 306 311 309 310 309 309 309 311 311 309 308 310 310 309 311 315 313 314 314 314 315 315 315 316 315 314 315 314 311 312 310 309 309 310 312 314 317 320 320
298 296 295 299 302 302 303 309 310 311 309 308 309 310 310 304 307 310 306 309 309 315 313 312 315 314 313 314 316 315 315 315 315 315 312 312 310 310 310 310 312 313 313 313 314
299 298 295 299 302 302 304 307 311 311 311 308 309 309 307 306 306 309 305 309 308 311 314 313 314 314 314 315 316 315 317 317 316 315 312 313 313 309 308 310 311 312 312 313 313
299 298 295 297 301 302 304 307 311 311 312 310 310 309 304 303 306 309 305 310 309 309 313 314 314 314 314 315 315 317 317 321 317 314 313 313 313 308 308 310 310 311 311 313 313
298 297 294 296 301 302 302 307 310 311 312 312 310 310 305 304 304 309 305 309 310 313 312 313 313 313 314 314 316 315 320 319 318 315 312 312 313 307 308 309 309 310 310 311 312
296 296 295 297 300 302 302 305 307 311 312 312 311 310 309 305 303 308 307 308 312 313 311 312 312 309 309 312 317 316 316 318 318 315 312 312 310 307 307 308 308 308 308 308 310
295 296 297 297 300 301 303 306 308 310 311 310 311 310 309 308 305 308 308 307 309 312 310 311 310 310 310 312 313 313 314 316 316 314 313 313 310 307 306 307 307 308 308 307 308
295 296 296 297 299 300 304 307 307 308 311 311 310 311 309 310 310 310 308 309 311 309 309 310 310 309 310 311 312 313 315 316 316 312 313 311 311 307 305 305 306 307 307 307 308
296 295 296 297 299 300 303 306 308 308 310 310 311 311 309 309 309 310 309 310 309 308 309 310 310 309 310 310 311 311 314 314 316 311 310 311 312 308 304 305 305 306 306 307 307
296 295 297 297 298 300 302 307 307 308 308 310 312 311 309 309 308 310 309 310 308 308 307 309 308 309 310 311 310 311 311 314 316 315 315 311 318 309 306 305 305 304 304 305 306
297 297 296 297 298 299 300 304 307 307 309 308 311 311 310 307 308 310 310 309 306 307 307 309 308 308 309 310 309 311 309 313 315 316 314 312 312 312 306 306 305 304 303 304 304
295 297 296 297 298 298 300 304 306 305 308 310 309 307 307 308 309 310 310 309 308 308 307 308 307 308 307 308 308 309 311 311 312 315 319 314 313 313 308 308 306 303 302 303 303
296 296 297 297 298 298 300 303 305 305 303 307 310 308 307 307 308 308 308 307 306 308 309 309 309 307 309 310 311 313 312 313 313 317 317 309 312 315 308 305 304 302 300 300 301
297 297 297 298 297 297 299 302 306 298 305 308 310 309 309 308 308 307 307 307 306 305 306 309 311 308 307 309 311 312 312 314 315 314 312 310 313 311 302 301 303 301 300 299 299
293 294 295 295 296 297 300 303 299 299 304 309 309 310 310 308 306 308 307 307 306 304 307 308 309 307 307 307 310 312 314 311 313 304 311 310 308 302 299 298 297 296 297 297 297
293 294 295 296 295 298 299 302 301 305 308 309 311 310 309 308 308 307 308 306 307 305 305 307 310 306 307 308 307 310 310 314 313 317 316 312 311 312 302 300 297 295 294 295 296
293 294 294 296 297 298 299 298 300 302 306 310 308 310 308 308 306 308 307 306 305 305 305 305 307 307 307 307 309 310 311 311 312 312 314 312 310 304 303 301 297 295 294 295 294
293 286 295 296 294 293 292 292 299 301 303 307 308 308 308 307 308 305 306 306 306 305 307 304 305 307 307 305 305 307 310 309 315 311 307 309 309 298 298 299 297 295 294 294 295
293 292 295 296 287 284 287 293 298 300 302 305 308 308 307 308 310 307 305 306 306 306 307 305 300 301 306 306 304 306 306 309 305 306 308 311 310 297 297 297 296 294 294 294 294
292 282 294 295 292 289 292 290 294 299 300 300 303 306 309 307 307 308 307 305 306 308 309 306 305 307 308 308 306 308 307 308 311 312 310 309 307 299 296 295 294 293 294 294 293
291 285 289 283 286 293 292 288 293 294 299 299 302 305 309 308 305 307 307 306 305 307 309 305 306 303 307 308 307 307 309 308 310 311 311 310 305 304 299 296 294 293 294 293 293
291 289 289 288 291 291 293 293 292 295 295 299 301 302 301 307 303 305 306 307 308 307 308 307 303 303 303 307 305 305 306 308 308 309 309 305 303 301 299 297 293 293 293 292 293
291 290 292 289 290 291 286 290 291 294 297 299 299 299 301 301 301 302 301 307 307 307 309 308 306 304 307 307 308 306 307 306 307 307 308 308 309 297 295 296 294 293 294 293 294
Wind_Speed
5 8 7 16 7 2 3 15 10 7 4 7 12 12 17 17 17 13 10 5 5 9 8 6 11 16 19 8 7 7 4 2 1 5 5 8 3 4 6 8 9 6 5 11 16
7 3 5 9 10 8 4 11 11 8 7 7 9 11 17 17 15 15 7 5 7 10 9 7 19 18 7 6 4 3 3 7 3 3 4 8 6 5 5 8 12 13 15 16 13
3 5 5 3 17 7 4 6 10 6 6 8 10 11 15 15 11 5 11 9 10 14 9 7 19 10 7 4 2 2 4 9 2 7 10 5 8 7 1 7 10 8 6 13 14
3 7 5 4 13 17 6 11 9 4 6 10 11 13 15 18 6 8 17 14 12 17 13 12 15 4 5 2 4 5 6 8 7 8 11 4 6 9 17 5 6 8 7 9 10
4 5 5 3 4 19 8 15 14 8 7 9 11 16 16 11 4 7 18 16 16 19 16 16 12 6 5 6 2 4 3 4 10 8 9 18 16 10 17 10 7 10 9 8 7
3 5 4 2 2 11 17 11 14 12 10 12 14 15 15 5 2 3 16 20 17 22 20 15 6 7 9 5 6 4 3 3 4 11 5 5 5 7 11 8 10 10 10 8 6
1 3 4 1 2 7 19 3 17 16 14 12 13 11 14 12 4 5 19 19 18 21 23 15 4 5 10 7 8 5 1 3 4 8 2 3 4 4 7 5 12 13 12 10 10
2 3 4 1 1 3 14 5 13 16 14 14 12 8 4 9 5 6 20 19 17 18 17 12 9 10 4 13 5 4 3 8 1 4 2 2 1 4 6 2 11 12 14 13 13
2 4 3 2 2 3 10 9 13 15 14 14 12 4 3 7 8 7 18 17 18 14 18 6 6 4 6 5 3 3 3 5 3 3 4 1 3 1 5 5 10 11 12 13 14
2 4 2 2 1 3 3 12 3 15 13 14 9 2 4 6 13 9 18 15 17 12 13 6 2 3 3 4 4 5 3 4 5 7 1 3 3 2 6 6 7 8 10 12 14
3 1 1 2 4 4 8 8 4 7 14 4 8 2 5 9 13 10 17 17 13 11 5 4 3 5 7 7 4 6 2 7 8 4 4 5 6 6 5 6 5 7 9 11 13
1 2 1 2 3 5 15 5 7 6 5 6 4 5 5 12 6 13 18 10 8 5 6 4 5 7 6 7 6 4 5 3 1 4 3 6 4 3 5 4 5 6 8 10 10
2 1 0 2 1 3 8 9 11 8 4 3 5 16 7 8 5 17 22 11 6 6 6 7 4 9 5 4 4 2 7 7 5 3 3 4 3 6 4 7 7 6 8 9 9
6 2 2 1 1 1 4 8 9 7 2 4 6 8 9 7 2 18 23 11 4 7 6 4 2 8 5 6 5 4 6 7 5 3 2 2 4 4 7 8 11 11 10 10 9
3 4 1 2 5 1 4 8 15 12 1 4 6 13 16 9 15 12 19 6 8 7 6 7 8 6 4 6 7 6 5 8 5 9 3 2 1 3 6 7 12 15 13 11 10
1 2 1 3 3 3 8 8 8 3 6 6 1 8 7 5 3 16 8 5 8 5 3 4 2 6 9 4 8 8 6 6 4 3 7 7 6 4 7 7 10 19 20 17 14
3 1 1 1 1 5 8 4 3 4 1 3 4 7 6 5 4 4 7 6 7 6 6 2 2 2 3 5 2 2 6 2 1 2 4 3 6 12 4 4 12 23 25 22 19
5 3 2 1 3 3 5 1 3 2 5 3 3 10 6 5 2 4 7 7 5 4 5 7 4 7 4 7 8 6 6 5 6 4 3 2 6 5 1 1 9 24 30 23 19
3 2 0 1 2 3 3 1 6 5 5 7 7 7 4 4 5 4 9 7 7 8 7 6 6 2 3 3 7 5 4 4 5 2 2 4 5 3 3 4 11 19 25 22 19
3 1 1 1 5 8 2 4 2 3 3 4 4 6 5 10 4 6 11 5 5 9 3 6 4 2 3 4 1 6 7 3 2 2 4 4 4 6 8 12 10 14 20 21 19
3 2 2 3 10 3 2 2 3 7 5 2 3 6 5 7 7 6 8 4 7 6 4 5 3 1 4 7 8 3 3 2 4 4 4 2 5 2 4 14 15 16 21 26 22
2 2 2 6 5 2 3 5 2 3 4 3 2 3 7 10 8 8 8 5 11 13 7 5 5 4 7 4 3 3 8 7 5 5 4 1 6 1 5 11 24 23 26 25 22
3 3 4 6 3 2 2 3 3 0 3 5 3 5 4 6 4 6 6 8 11 8 10 6 2 3 5 5 1 5 5 7 3 2 7 6 5 2 5 13 21 26 30 28 25
2 1 2 4 2 3 4 4 3 4 2 4 4 5 3 5 5 9 12 6 13 10 6 7 4 8 12 2 7 7 7 10 14 8 6 11 6 5 6 9 17 25 32 31 29
5 3 3 2 3 4 2 3 2 2 5 5 4 5 3 5 3 6 5 3 2 6 3 6 10 4 2 2 1 3 15 15 20 22 13 13 10 5 15 17 27 32 35 35 33
4 4 3 4 8 6 6 5 8 6 7 5 8 5 6 4 3 7 8 5 8 6 6 3 3 3 2 4 3 3 8 17 24 20 18 3 8 1 7 23 26 33 38 38 40
12 8 2 6 5 5 5 7 7 3 9 8 7 5 12 12 8 18 22 13 7 11 15 8 6 4 5 6 3 7 20 15 12 18 14 17 21 6 6 18 31 36 45 46 45
Wind_Direction
246 299 291 235 308 294 168 158 219 239 246 213 197 191 197 188 188 188 185 172 167 161 160 138 144 154 164 140 137 122 89 106 324 346 310 343 18 46 59 88 58 47 91 131 145
266 280 291 245 250 328 200 171 202 227 258 196 175 184 187 187 188 194 179 176 167 164 158 149 147 144 112 111 118 102 110 154 246 330 310 325 42 4 66 68 47 57 95 125 137
312 286 319 309 246 279 357 174 184 244 213 180 163 166 174 175 176 194 193 179 164 155 138 136 155 131 92 100 53 60 136 166 43 347 348 349 58 39 53 45 20 330 81 132 147
303 321 329 320 242 252 301 177 171 179 128 155 174 161 165 154 154 170 186 183 172 158 142 135 149 95 114 71 76 110 85 157 131 2 3 18 83 61 53 32 27 92 136 139 150
318 332 350 9 281 247 267 129 141 149 124 160 163 162 165 168 101 169 180 176 171 168 152 141 148 123 125 153 76 62 148 87 105 72 91 84 76 95 45 53 87 103 123 119 129
317 351 353 20 325 251 251 81 152 153 140 140 160 170 172 132 111 147 172 178 177 173 165 167 138 100 114 123 139 189 102 28 51 53 89 114 60 139 28 49 83 95 86 78 89
305 352 11 188 337 284 234 329 156 161 158 151 154 170 179 154 174 143 168 178 180 183 187 185 184 144 140 136 132 103 68 5 41 357 89 140 44 47 4 51 74 73 78 73 70
264 319 7 151 31 279 257 229 157 156 162 162 153 160 172 193 160 156 171 174 179 186 190 181 167 151 115 137 70 81 55 203 21 10 309 76 265 28 35 74 75 77 77 74 68
303 317 360 175 148 110 211 192 147 165 166 160 158 139 168 189 182 166 174 177 176 172 178 168 184 110 116 91 62 11 133 185 187 279 286 79 145 21 64 103 89 83 73 75 79
16 327 40 134 130 88 156 217 272 166 161 145 168 185 211 185 183 171 176 169 166 152 167 192 123 101 61 108 185 177 171 190 167 202 92 53 115 123 83 105 94 88 86 83 80
357 7 22 75 165 121 145 177 136 133 161 144 169 106 125 152 165 169 174 164 156 156 141 152 120 194 183 184 164 167 151 162 177 225 131 194 166 169 130 110 111 108 104 99 90
36 315 343 346 193 168 151 138 145 135 164 177 153 143 136 146 137 160 165 155 148 142 131 69 221 218 193 183 148 156 142 135 175 313 166 183 192 148 165 180 160 157 139 129 122
98 123 225 271 275 164 169 171 144 108 107 188 204 194 149 164 158 165 166 149 132 140 176 164 234 164 156 143 134 201 183 172 169 134 47 116 268 193 184 163 166 180 164 155 151
81 118 254 246 89 314 185 139 182 198 86 192 203 194 167 158 135 173 169 159 156 170 139 200 158 157 164 178 146 202 203 169 193 80 230 199 272 228 175 177 187 189 181 167 149
111 121 182 192 9 119 236 151 142 153 147 171 161 166 165 172 136 185 173 153 158 163 133 228 170 146 166 197 170 224 159 188 162 184 35 268 18 249 134 203 206 193 190 174 168
153 151 196 270 289 302 219 139 147 68 251 182 92 168 131 159 159 151 160 158 138 122 49 186 182 153 196 168 175 155 94 57 63 56 239 201 175 242 191 203 174 178 187 173 178
85 106 30 206 297 306 222 113 105 170 308 209 195 168 148 152 142 179 165 175 159 123 172 115 204 284 163 100 67 137 121 54 22 232 233 163 195 239 192 187 183 173 176 182 183
128 172 169 226 318 330 236 203 148 234 193 124 175 143 169 142 191 157 135 191 249 120 137 156 212 176 184 176 174 196 159 156 196 201 241 92 227 249 58 82 180 171 177 179 181
145 142 206 245 307 14 104 43 202 197 177 166 117 159 177 225 136 148 196 212 203 195 147 144 223 121 169 167 160 210 177 161 109 84 35 223 277 219 160 136 141 152 172 177 180
156 116 93 54 123 122 103 285 295 299 318 163 165 185 163 180 153 179 175 200 221 197 218 209 156 191 169 133 90 167 162 87 35 162 232 263 265 246 222 200 179 172 171 177 179
185 115 98 117 131 141 195 233 301 303 330 241 195 162 182 171 174 189 198 291 188 186 192 152 109 183 140 211 160 140 177 101 137 174 198 255 250 194 209 187 186 180 179 183 182
188 60 128 150 94 106 164 199 205 308 314 285 264 178 180 167 170 196 215 233 190 154 175 205 124 172 198 241 202 183 185 162 191 216 225 191 266 53 241 196 178 174 181 187 185
210 141 157 187 147 219 312 275 279 315 4 328 282 203 179 187 193 196 191 203 190 181 170 189 245 77 359 335 9 200 195 177 132 117 194 187 248 48 105 140 171 165 179 184 182
208 43 149 154 88 128 160 238 250 230 200 253 289 289 154 217 207 200 210 201 197 195 217 169 162 196 217 209 142 195 188 199 207 227 198 230 259 195 182 165 166 171 182 183 183
222 236 185 213 216 191 200 164 162 243 247 184 300 260 205 214 202 215 185 133 186 218 210 175 222 164 211 111 216 226 199 193 210 223 212 241 220 209 197 191 180 178 182 182 184
228 174 182 152 134 151 201 235 201 203 162 231 195 266 287 241 226 199 174 188 185 173 182 191 251 120 246 154 80 300 241 217 220 222 238 292 240 50 160 159 171 182 183 185 188
214 200 200 169 175 162 215 206 211 184 245 226 223 199 262 278 281 286 285 204 190 175 186 173 152 126 246 143 125 288 227 215 218 221 214 221 230 149 175 183 186 185 190 191 192